Regional Weather Roundup
Issued by NWS Charleston, SC

Current Version | Previous Version | Graphics & Text | Print | Product List | Glossary On
Versions: 1 2 3 4 5 6 7 8 9 10 11 12 13 14 15 16 17 18 19 20 21 22 23 24 25 26 27 28 29 30 31 32 33 34 35 36 37 38 39 40 41 42 43 44 45 46 47 48 49 50
000 ASUS42 KCHS 301213 RWRCHS REGIONAL WEATHER ROUNDUP NATIONAL WEATHER SERVICE CHARLESTON SC 800 AM EDT MON MAY 30 2016 NOTE: "FAIR" INDICATES FEW OR NO CLOUDS BELOW 12,000 FEET WITH NO SIGNIFICANT WEATHER AND/OR OBSTRUCTIONS TO VISIBILITY. NOT ALL STATIONS ARE QUALITY CONTROLLED. USE DATA WITH CAUTION... ESPECIALLY DEWPOINT OBSERVATIONS. SCZ027-030-031-034>040-042>050-301300- ...SOUTHEAST SOUTH CAROLINA... CITY SKY/WX TMP DP RH WIND PRES REMARKS N CHARLESTON LGT RAIN 71 68 90 NW7 29.92R 6HR MIN TEMP: 70; 6HR MAX TEMP: 72; 6HR PCP: TRACE; WATERFRONT PRK N/A 71 69 93 W5 29.90R MOUNT PLEASANT CLOUDY 72 70 94 CALM 29.92S JOHNS ISLAND CLOUDY 72 70 94 W5 29.92F FOG PINOPOLIS NOT AVBL MONCKS CORNER DRIZZLE 66 64 94 CALM 29.91S SUMMERVILLE NOT AVBL BEAUFORT MCAS CLOUDY 69 67 93 W10 29.95S 6HR MIN TEMP: 68; 6HR MAX TEMP: 70; 6HR PCP: 0.03; BEAUFORT ARPT DRIZZLE 68 68 100 W10 29.94S HILTON HEAD IS MOSUNNY 70 66 88 W7 29.97R WALTERBORO CLOUDY 70 70 100 W9 29.95S ALLENDALE CLOUDY 68 66 94 CALM 29.97R ...SOUTHERN MIDLANDS AND PEE DEE... CITY SKY/WX TMP DP RH WIND PRES REMARKS GEORGETOWN PTSUNNY 70 68 94 CALM 29.92S KINGSTREE CLOUDY 70 68 94 E3 29.91R ORANGEBURG CLOUDY 68 66 93 NW9 29.95R 6HR MIN TEMP: 68; 6HR MAX TEMP: 69; 6HR PCP: 0.11; BARNWELL CLOUDY 70 70 100 NW6 29.98R AIKEN CLOUDY 66 61 82 N8 30.02S MANNING DRIZZLE 68 66 94 NW6 29.92S COLUMBIA CLOUDY 70 63 78 NW10 29.97R 6HR MIN TEMP: 69; 6HR MAX TEMP: 71; 6HR PCP: TRACE; SUMTER DRIZZLE 68 66 94 N10 29.92R 6HR MIN TEMP: 67; 6HR MAX TEMP: 69; 6HR PCP: 0.02; FLORENCE CLOUDY 72 70 93 NE9 29.93S 6HR MIN TEMP: 71; 6HR MAX TEMP: 73; 6HR PCP: TRACE; MYRTLE BEACH PTSUNNY 73 64 73 S12 29.94S N MYRTLE BEACH CLOUDY 75 71 87 S8 29.92S 6HR MIN TEMP: 74; 6HR MAX TEMP: 75; 6HR PCP: TRACE; $$ GAZ063-065-086>088-099>101-113>116-118-119-134>141-150-301300- ...SOUTHEAST GEORGIA... CITY SKY/WX TMP DP RH WIND PRES REMARKS SAVANNAH ARPT LGT RAIN 69 64 84 NW9 29.97S 6HR MIN TEMP: 67; 6HR MAX TEMP: 70; 6HR PCP: TRACE; HUNTER AAF CLOUDY 69 67 91 NW6 29.95R 6HR MIN TEMP: 68; 6HR MAX TEMP: 70; FORT STEWART CLOUDY 70 62 75 CALM 29.96S 6HR MIN TEMP: 70; 6HR MAX TEMP: 72; STATESBORO CLOUDY 69 66 90 N8 29.99S SYLVANIA CLOUDY 69 65 87 NW6 30.00R CLAXTON PTSUNNY 70 65 86 W5 30.00R ...CSRA...CENTRAL AND FAR SOUTHEAST GEORGIA... CITY SKY/WX TMP DP RH WIND PRES REMARKS THOMSON MOSUNNY 66 66 99 NW5 30.06S AUGUSTA-BUSH PTSUNNY 69 64 84 N8 29.99R 6HR MIN TEMP: 64; 6HR MAX TEMP: 69; 6HR PCP: TRACE; AUGUSTA-DANIEL PTSUNNY 69 62 78 N8 30.00S SWAINSBORO PTSUNNY 68 63 83 NW5 30.01S VIDALIA SUNNY 72 61 68 N5 30.01R EASTMAN FAIR 68 68 100 N3 30.04S HAZLEHURST FAIR 70 65 83 CALM 30.00S ALMA SUNNY 71 63 75 N6 30.00S 6HR MIN TEMP: 64; 6HR MAX TEMP: 71; WAYCROSS SUNNY 71 65 80 CALM 30.01R JESUP CLOUDY 66 59 77 CALM 30.00S BAXLEY FAIR 70 64 83 NW3 30.00S BRUNSWICK CLOUDY 77 66 69 W5 30.00S SAINT SIMONS CLOUDY 73 64 73 W6 29.99R 6HR MIN TEMP: 72; 6HR MAX TEMP: 75; $$ SCZ027-028-034-036>038-045-046-048>050-GAZ119-141-301300- ...LAKE AND SUPPLEMENTAL COASTAL OBSERVATIONS... STATION/POSITION TIME TEMP WIND PRES WAVE SWELL AIR SEA DIR/SP/G HT/PER HT/PER/DIR (UTC) (F) (DEG/KT/KT) (MB) (FT/S) (FT/S/D) WINYAH BAY NOT AVBL LAKE MURRAY 1100 68 350/ 2/ 7 1014.6R ACE BASIN NERRS NOT AVBL FORT PULASKI 1100 69 75 280/ 11/ 12 1014.7R SAPELO ISLAND NOT AVBL $$ ANZ835-935-AMZ111-154-330-350-352-354-370-450-454-472-301300- ...C-MAN AND BUOY OBSERVATIONS... STATION/POSITION TIME TEMP WIND PRES WAVE SWELL AIR SEA DIR/SP/G HT/PER HT/PER/DIR (UTC) (F) (DEG/KT/KT) (MB) (FT/S) (FT/S/D) BUOY 41004 1150 75 77 220/ 17/ 19 1012.6S 5/ 6 2/ 9 BUOY 41008 1150 74 76 280/ 8/ 12 1014.8R 2/ 8 2/100/ 8 FOLLY BEACH CMAN 1100 69 270/ 4/ 6 1013.2R CAPERS NEARSHORE 1108 71 76 290/ 6/ 8 1012.8R FRIPP NEARSHORE 1108 71 75 290/ 16/ 19 1013.2R STATION/POSITION TIME TEMP WIND PRES WAVE SWELL AIR SEA DIR/SP/G HT/PER HT/PER/DIR (UTC) (F) (DEG/KT/KT) (MB) (FT/S) (FT/S/D) 5E ST. MARYS GA 1101 78 N/A 2/ 9 FRYING PAN BUOY 1100 78 78 180/ 17/ 21 1013.9R BUOY 41025 1150 77 80 150/ 21/ 25 1015.7F 5/ 9 2/170/ 9 CAPE LOOKOUT NC 1200 71 250/ 4/ 6 1015.8R BUOY 41002 1150 74 76 110/ 8/ 12 1016.4R 4/ 8 3/100/ 8 BUOY 41010 1120 78 79 230/ 10/ 12 1016.1R ST AUGUSTINE FL 1200 75 79 260/ 8/ 10 1016.5S $$

USA.gov is the U.S. government's official web portal to all federal, state and local government web resources and services.